Previsão horária em Allen

Hoje, 14 Junho, Segunda-feira

Tempo Temperatura Precipitação Vento Pressão Humidade
00:00 +30°C° 0 mm 1 m/s 742 mmHg 79%
01:00 +29°C° 0.4 mm 1 m/s 742 mmHg 81%
02:00 +29°C° 0.4 mm 2 m/s 742 mmHg 82%
03:00 +28°C° 0.4 mm 2 m/s 742 mmHg 84%
04:00 +28°C° 0 mm 3 m/s 742 mmHg 85%
05:00 +27°C° 0 mm 3 m/s 743 mmHg 86%
06:00 +26°C° 0 mm 3 m/s 743 mmHg 87%
07:00 +28°C° 0 mm 3 m/s 743 mmHg 81%
08:00 +29°C° 0 mm 3 m/s 744 mmHg 76%
09:00 +30°C° 0 mm 3 m/s 744 mmHg 70%
10:00 +31°C° 0 mm 3 m/s 744 mmHg 66%
11:00 +34°C° 0 mm 3 m/s 744 mmHg 63%
12:00 +35°C° 0 mm 3 m/s 744 mmHg 59%
13:00 +35°C° 0 mm 3 m/s 744 mmHg 54%
14:00 +36°C° 0 mm 4 m/s 743 mmHg 50%
15:00 +36°C° 0 mm 4 m/s 743 mmHg 46%
16:00 +35°C° 0 mm 4 m/s 743 mmHg 49%
17:00 +35°C° 0 mm 3 m/s 743 mmHg 53%
18:00 +34°C° 0 mm 3 m/s 743 mmHg 57%
19:00 +33°C° 0 mm 3 m/s 743 mmHg 62%
20:00 +30°C° 0 mm 2 m/s 743 mmHg 66%
21:00 +28°C° 0 mm 2 m/s 743 mmHg 70%
22:00 +28°C° 0 mm 2 m/s 743 mmHg 71%
23:00 +28°C° 0 mm 2 m/s 743 mmHg 71%

Amanhã, 15 Junho, Terça-feira

Tempo Temperatura Precipitação Vento Pressão Humidade
00:00 +27°C° 0 mm 2 m/s 743 mmHg 71%
01:00 +27°C° 0 mm 2 m/s 744 mmHg 72%
02:00 +26°C° 0 mm 2 m/s 744 mmHg 74%
03:00 +26°C° 0 mm 2 m/s 744 mmHg 75%
04:00 +26°C° 0 mm 2 m/s 744 mmHg 77%
05:00 +26°C° 0 mm 2 m/s 744 mmHg 79%
06:00 +25°C° 0 mm 2 m/s 744 mmHg 81%
07:00 +27°C° 0 mm 2 m/s 745 mmHg 75%
08:00 +29°C° 0 mm 2 m/s 745 mmHg 70%
09:00 +30°C° 0 mm 2 m/s 745 mmHg 64%
10:00 +32°C° 0 mm 2 m/s 745 mmHg 59%
11:00 +34°C° 0 mm 2 m/s 745 mmHg 54%
12:00 +35°C° 0 mm 2 m/s 745 mmHg 49%
13:00 +36°C° 0 mm 3 m/s 745 mmHg 45%
14:00 +36°C° 0 mm 3 m/s 744 mmHg 42%
15:00 +36°C° 0 mm 4 m/s 744 mmHg 39%
16:00 +35°C° 0 mm 3 m/s 744 mmHg 43%
17:00 +35°C° 0 mm 3 m/s 744 mmHg 46%
18:00 +34°C° 0 mm 3 m/s 744 mmHg 50%
19:00 +31°C° 0 mm 3 m/s 744 mmHg 54%
20:00 +29°C° 0 mm 3 m/s 744 mmHg 58%
21:00 +28°C° 0 mm 2 m/s 744 mmHg 61%
22:00 +27°C° 0 mm 2 m/s 744 mmHg 63%
23:00 +27°C° 0 mm 2 m/s 744 mmHg 65%

Depois de amanhã, 16 Junho, Quarta-feira

Tempo Temperatura Precipitação Vento Pressão Humidade
00:00 +26°C° 0 mm 2 m/s 745 mmHg 66%
01:00 +26°C° 0 mm 2 m/s 744 mmHg 67%
02:00 +26°C° 0 mm 1 m/s 744 mmHg 68%
03:00 +26°C° 0 mm 1 m/s 744 mmHg 69%
04:00 +25°C° 0 mm 1 m/s 744 mmHg 71%
05:00 +25°C° 0 mm 1 m/s 744 mmHg 73%
06:00 +25°C° 0 mm 1 m/s 745 mmHg 75%
07:00 +27°C° 0 mm 2 m/s 745 mmHg 70%
08:00 +28°C° 0 mm 2 m/s 745 mmHg 65%
09:00 +30°C° 0 mm 2 m/s 746 mmHg 61%
10:00 +31°C° 0 mm 2 m/s 746 mmHg 57%
11:00 +32°C° 0 mm 2 m/s 745 mmHg 54%
12:00 +35°C° 0 mm 2 m/s 745 mmHg 50%
13:00 +35°C° 0 mm 2 m/s 745 mmHg 48%
14:00 +36°C° 0 mm 2 m/s 745 mmHg 46%
15:00 +36°C° 0 mm 3 m/s 744 mmHg 44%
16:00 +36°C° 0 mm 3 m/s 744 mmHg 48%
17:00 +35°C° 0 mm 3 m/s 744 mmHg 51%
18:00 +35°C° 0 mm 3 m/s 744 mmHg 54%
19:00 +33°C° 0 mm 3 m/s 744 mmHg 58%
20:00 +31°C° 0 mm 3 m/s 744 mmHg 62%
21:00 +29°C° 0 mm 3 m/s 744 mmHg 67%
22:00 +29°C° 0 mm 2 m/s 744 mmHg 68%
23:00 +28°C° 0 mm 2 m/s 744 mmHg 68%

17 Junho, Quinta-feira

Tempo Temperatura Precipitação Vento Pressão Humidade
00:00 +28°C° 0 mm 2 m/s 744 mmHg 69%
01:00 +27°C° 0 mm 2 m/s 744 mmHg 71%
02:00 +27°C° 0 mm 2 m/s 744 mmHg 73%
03:00 +26°C° 0 mm 2 m/s 744 mmHg 75%
04:00 +26°C° 0 mm 2 m/s 744 mmHg 76%
05:00 +26°C° 0 mm 2 m/s 744 mmHg 77%
06:00 +26°C° 0 mm 2 m/s 744 mmHg 79%
07:00 +27°C° 0 mm 2 m/s 744 mmHg 73%
08:00 +29°C° 0 mm 2 m/s 744 mmHg 66%
09:00 +31°C° 0 mm 2 m/s 745 mmHg 60%
10:00 +32°C° 0 mm 2 m/s 744 mmHg 55%
11:00 +33°C° 0 mm 1 m/s 744 mmHg 50%
12:00 +35°C° 0 mm 1 m/s 744 mmHg 45%
13:00 +35°C° 0 mm 1 m/s 744 mmHg 43%
14:00 +37°C° 0 mm 2 m/s 743 mmHg 40%
15:00 +37°C° 0 mm 2 m/s 743 mmHg 38%
16:00 +36°C° 0 mm 3 m/s 742 mmHg 42%
17:00 +36°C° 0 mm 3 m/s 742 mmHg 46%
18:00 +35°C° 0 mm 4 m/s 742 mmHg 50%
19:00 +33°C° 0 mm 4 m/s 742 mmHg 56%
20:00 +32°C° 0 mm 4 m/s 742 mmHg 63%
21:00 +29°C° 0 mm 4 m/s 742 mmHg 70%
22:00 +29°C° 0 mm 4 m/s 742 mmHg 71%
23:00 +28°C° 0 mm 3 m/s 742 mmHg 71%

18 Junho, Sexta-feira

Tempo Temperatura Precipitação Vento Pressão Humidade
00:00 +28°C° 0 mm 3 m/s 742 mmHg 72%
01:00 +27°C° 0 mm 3 m/s 742 mmHg 73%
02:00 +27°C° 0 mm 3 m/s 742 mmHg 75%
03:00 +27°C° 0 mm 2 m/s 742 mmHg 76%
04:00 +26°C° 0 mm 2 m/s 742 mmHg 78%
05:00 +26°C° 0 mm 3 m/s 742 mmHg 79%
06:00 +26°C° 0 mm 3 m/s 742 mmHg 80%
07:00 +27°C° 0 mm 3 m/s 742 mmHg 74%
08:00 +29°C° 0 mm 2 m/s 743 mmHg 67%
09:00 +30°C° 0 mm 2 m/s 743 mmHg 61%
10:00 +32°C° 0 mm 2 m/s 742 mmHg 56%
11:00 +33°C° 0 mm 1 m/s 742 mmHg 51%
12:00 +34°C° 0 mm 1 m/s 742 mmHg 47%
13:00 +36°C° 0 mm 2 m/s 741 mmHg 45%
14:00 +36°C° 0 mm 3 m/s 741 mmHg 44%
15:00 +37°C° 0 mm 4 m/s 741 mmHg 42%
16:00 +36°C° 0 mm 4 m/s 740 mmHg 46%
17:00 +35°C° 0 mm 4 m/s 740 mmHg 50%
18:00 +34°C° 0 mm 4 m/s 740 mmHg 53%
19:00 +33°C° 0 mm 4 m/s 740 mmHg 58%
20:00 +30°C° 0 mm 3 m/s 741 mmHg 63%
21:00 +29°C° 0 mm 3 m/s 741 mmHg 68%
22:00 +28°C° 0 mm 3 m/s 741 mmHg 69%
23:00 +27°C° 0 mm 3 m/s 741 mmHg 70%

19 Junho, Sábado

Tempo Temperatura Precipitação Vento Pressão Humidade
00:00 +27°C° 0 mm 2 m/s 741 mmHg 71%
01:00 +26°C° 0 mm 2 m/s 741 mmHg 72%
02:00 +26°C° 0 mm 2 m/s 741 mmHg 74%
03:00 +25°C° 0 mm 2 m/s 741 mmHg 75%
04:00 +25°C° 0 mm 2 m/s 741 mmHg 75%
05:00 +25°C° 0 mm 2 m/s 741 mmHg 76%
06:00 +24°C° 0 mm 1 m/s 742 mmHg 76%
07:00 +26°C° 0 mm 2 m/s 742 mmHg 70%
08:00 +28°C° 0 mm 2 m/s 742 mmHg 64%
09:00 +29°C° 0 mm 2 m/s 742 mmHg 58%
10:00 +30°C° 0 mm 3 m/s 742 mmHg 55%
11:00 +33°C° 0 mm 3 m/s 742 mmHg 51%
12:00 +34°C° 0 mm 3 m/s 742 mmHg 47%
13:00 +34°C° 0 mm 3 m/s 741 mmHg 47%
14:00 +35°C° 0 mm 3 m/s 741 mmHg 47%
15:00 +35°C° 0 mm 3 m/s 741 mmHg 47%
16:00 +35°C° 0 mm 3 m/s 741 mmHg 50%
17:00 +34°C° 0 mm 2 m/s 740 mmHg 52%
18:00 +34°C° 0 mm 2 m/s 740 mmHg 55%
19:00 +32°C° 0 mm 2 m/s 740 mmHg 59%
20:00 +30°C° 0 mm 2 m/s 740 mmHg 64%
21:00 +29°C° 0 mm 2 m/s 741 mmHg 68%
22:00 +29°C° 0 mm 2 m/s 741 mmHg 71%
23:00 +28°C° 0 mm 2 m/s 740 mmHg 74%
Mostrar mais